GSAT0104 (PRN E20)

Last updated on Sat Mar 23 2024 00:03:10 GMT+0000 (Greenwich Mean Time)

1 38858U 12055B 24077.63792391 -.00000001 00000+0 00000+0 0 9995 2 38858 55.3641 124.1218 0003138 264.9458 95.0863 1.70473802 71001
UTC large
Height (km)
Speed (km/s)
/
Latitude / Longitude
Inclination (degrees)
Orbital Period (minutes)
Azimuth
Elevation
Range (km)
Doppler Factor

Next 0 passes for location: London (51.5072 / 0.1276)

Sorry there are no passes over London.